Belen, NM

12:13 PM MST on February 26, 2017 (GMT -0700)
Belen

Weather History for KE80 - February, 2013

Change the Weather History Date:

Saturday, February 16, 2013

  Actual Average (KABQ) Record (KABQ)
Temperature  
Mean Temperature 38 °F -  
Max Temperature 57 °F 53 °F 71 °F (1904)
Min Temperature 20 °F 28 °F -7 °F (1895)
Degree Days  
Heating Degree Days 26    
Moisture  
Dew Point 4 °F    
Average Humidity 27    
Maximum Humidity 48    
Minimum Humidity 13    
Precipitation  
Precipitation 0.00 in - - ()
Sea Level Pressure  
Sea Level Pressure 30.30 in    
Wind  
Wind Speed 5 mph (NNW)    
Max Wind Speed 10 mph    
Max Gust Speed -    
Visibility 10 miles    
Events      
Averages and records for this station are not official NWS values.
T = Trace of Precipitation, MM = Missing Value Source: NWS Daily Summary

Daily Weather History Graph

Daily Weather History Graph

Search for Another Location

Airport or City:

Trip Planner

Search our weather history database for the weather conditions in past years. The results will help you decide how hot, cold, wet, or windy it might be!

Date:

Astronomy

Feb. 16, 2013 Rise Set
Actual Time 6:51 AM MST 5:51 PM MST
Civil Twilight 6:25 AM MST 6:17 PM MST
Nautical Twilight 5:56 AM MST 6:47 PM MST
Astronomical Twilight 5:26 AM MST 7:16 PM MST
Moon 10:24 AM MST (2/16) No Moon Set
Length of Visible Light 11h 51m
Length of Day
11h 00m
Waxing Crescent, 40% of the Moon is Illuminated
Feb 16
Waxing Crescent
Feb 17
First Quarter
Feb 25
Full
Mar 4
Last Quarter
Mar 11
New

Hourly Weather History & Observations

Time (MST) Temp. Windchill Dew Point Humidity Pressure Visibility Wind Dir Wind Speed Gust Speed Precip Events Conditions
12:15 AM 30.2 °F 25.4 °F 6.8 °F 37% 30.39 in 10.0 mi NE 4.6 mph - N/A   Clear
12:35 AM 27.3 °F - 3.9 °F 37% 30.39 in 10.0 mi Calm Calm - N/A   Clear
12:55 AM 27.5 °F - 4.3 °F 37% 30.40 in 10.0 mi Calm Calm - N/A   Clear
1:15 AM 28.8 °F 22.6 °F 5.5 °F 37% 30.40 in 10.0 mi NNW 5.8 mph - N/A   Clear
1:35 AM 27.5 °F 18.6 °F 5.0 °F 38% 30.40 in 10.0 mi NNW 9.2 mph - N/A   Clear
1:55 AM 30.7 °F 22.0 °F 6.6 °F 36% 30.40 in 10.0 mi NNW 10.4 mph - N/A   Clear
2:15 AM 30.9 °F 22.2 °F 7.3 °F 37% 30.40 in 10.0 mi North 10.4 mph - N/A   Clear
2:35 AM 31.3 °F 22.7 °F 7.7 °F 37% 30.40 in 10.0 mi North 10.4 mph - N/A   Clear
2:55 AM 28.9 °F 19.8 °F 7.9 °F 41% 30.40 in 10.0 mi North 10.4 mph - N/A   Clear
3:15 AM 27.7 °F 21.3 °F 7.7 °F 43% 30.40 in 10.0 mi North 5.8 mph - N/A   Clear
3:35 AM 26.2 °F 22.1 °F 7.2 °F 44% 30.40 in 10.0 mi NNE 3.5 mph - N/A   Clear
3:55 AM 23.5 °F 19.1 °F 5.4 °F 46% 30.41 in 10.0 mi WNW 3.5 mph - N/A   Clear
4:15 AM 22.8 °F 18.2 °F 5.0 °F 47% 30.41 in 10.0 mi South 3.5 mph - N/A   Clear
4:35 AM 20.5 °F - 3.7 °F 48% 30.41 in 10.0 mi Calm Calm - N/A   Clear
4:55 AM 21.2 °F 11.7 °F 3.7 °F 47% 30.41 in 10.0 mi West 8.1 mph - N/A   Clear
5:15 AM 20.7 °F 11.0 °F 2.8 °F 46% 30.41 in 10.0 mi WNW 8.1 mph - N/A   Clear
5:35 AM 21.7 °F 13.2 °F 3.2 °F 45% 30.41 in 10.0 mi WNW 6.9 mph - N/A   Clear
5:55 AM 21.0 °F 11.4 °F 3.4 °F 47% 30.41 in 10.0 mi WNW 8.1 mph - N/A   Clear
6:15 AM 20.5 °F 12.8 °F 3.0 °F 47% 30.41 in 10.0 mi NW 5.8 mph - N/A   Clear
6:35 AM 20.5 °F 10.8 °F 3.7 °F 48% 30.41 in 10.0 mi NW 8.1 mph - N/A   Clear
6:55 AM 21.9 °F 11.0 °F 4.1 °F 46% 30.41 in 10.0 mi NW 10.4 mph - N/A   Clear
7:15 AM 23.5 °F 13.7 °F 5.0 °F 45% 30.42 in 10.0 mi NW 9.2 mph - N/A   Clear
7:35 AM 24.8 °F 15.3 °F 5.2 °F 43% 30.43 in 10.0 mi NNW 9.2 mph - N/A   Clear
7:55 AM 28.0 °F 20.8 °F 5.5 °F 38% 30.44 in 10.0 mi NW 6.9 mph - N/A   Clear
8:15 AM 31.6 °F 27.0 °F 7.5 °F 36% 30.44 in 10.0 mi NW 4.6 mph - N/A   Clear
8:35 AM 33.8 °F 29.6 °F 8.6 °F 35% 30.44 in 10.0 mi NW 4.6 mph - N/A   Clear
11:15 AM 45.7 °F - 7.7 °F 21% 30.40 in 10.0 mi Calm Calm - N/A   Clear
11:35 AM 47.5 °F - 6.1 °F 18% 30.39 in 10.0 mi NNE 4.6 mph - N/A   Clear
11:55 AM 48.2 °F - 5.7 °F 18% 30.37 in 10.0 mi North 4.6 mph - N/A   Clear
12:15 PM 49.1 °F - 5.9 °F 17% 30.35 in 10.0 mi North 3.5 mph - N/A   Clear
12:35 PM 50.2 °F - 5.9 °F 17% 30.33 in 10.0 mi SSE 3.5 mph - N/A   Clear
12:55 PM 50.9 °F - 5.9 °F 16% 30.32 in 10.0 mi Calm Calm - N/A   Clear
1:15 PM 52.7 °F - 6.6 °F 16% 30.31 in 10.0 mi Calm Calm - N/A   Clear
1:35 PM 53.8 °F - 6.4 °F 15% 30.29 in 10.0 mi SW 3.5 mph - N/A   Clear
1:55 PM 54.1 °F - 6.4 °F 15% 30.28 in 10.0 mi Calm Calm - N/A   Clear
2:15 PM 55.0 °F - 6.6 °F 14% 30.27 in 10.0 mi WNW 4.6 mph - N/A   Clear
2:35 PM 55.6 °F - 6.4 °F 14% 30.25 in 10.0 mi Calm Calm - N/A   Clear
2:55 PM 55.4 °F - 6.4 °F 14% 30.25 in 10.0 mi Calm Calm - N/A   Clear
3:15 PM 57.6 °F - 7.2 °F 13% 30.23 in 10.0 mi NE 4.6 mph - N/A   Clear
3:35 PM 57.2 °F - 6.8 °F 13% 30.23 in 10.0 mi ENE 3.5 mph - N/A   Clear
3:55 PM 57.4 °F - 6.6 °F 13% 30.22 in 10.0 mi Calm Calm - N/A   Clear
4:15 PM 57.7 °F - 6.6 °F 13% 30.21 in 10.0 mi Calm Calm - N/A   Clear
4:35 PM 57.7 °F - 6.4 °F 13% 30.20 in 10.0 mi East 3.5 mph - N/A   Clear
4:55 PM 57.4 °F - 6.4 °F 13% 30.19 in 10.0 mi East 3.5 mph - N/A   Clear
5:15 PM 56.5 °F - 5.9 °F 13% 30.19 in 10.0 mi ESE 3.5 mph - N/A   Clear
5:35 PM 54.7 °F - 5.4 °F 14% 30.20 in 10.0 mi SE 4.6 mph - N/A   Clear
5:55 PM 52.7 °F - 5.0 °F 15% 30.19 in 10.0 mi ESE 3.5 mph - N/A   Clear
6:15 PM 46.6 °F - 2.1 °F 16% 30.19 in 10.0 mi South 4.6 mph - N/A   Clear
6:35 PM 45.1 °F 42.8 °F 1.4 °F 16% 30.19 in 7.0 mi South 4.6 mph - N/A   Clear
6:55 PM 44.2 °F 41.0 °F 1.0 °F 17% 30.20 in 10.0 mi South 5.8 mph - N/A   Clear
7:15 PM 42.8 °F 40.1 °F 1.4 °F 18% 30.20 in 10.0 mi South 4.6 mph - N/A   Clear
7:35 PM 42.8 °F 40.1 °F 1.2 °F 18% 30.19 in 10.0 mi SSW 4.6 mph - N/A   Clear
7:55 PM 41.9 °F 39.0 °F 0.7 °F 18% 30.19 in 10.0 mi South 4.6 mph - N/A   Clear
8:15 PM 41.2 °F 39.2 °F 0.5 °F 18% 30.19 in 10.0 mi South 3.5 mph - N/A   Clear
8:35 PM 40.1 °F 36.9 °F 0.3 °F 19% 30.19 in 10.0 mi SSW 4.6 mph - N/A   Clear
8:55 PM 38.8 °F 35.4 °F 0.1 °F 20% 30.19 in 10.0 mi WNW 4.6 mph - N/A   Clear
9:15 PM 35.2 °F - -1.7 °F 21% 30.18 in 10.0 mi Calm Calm - N/A   Clear
9:35 PM 34.2 °F 31.2 °F -1.1 °F 22% 30.18 in 10.0 mi NE 3.5 mph - N/A   Clear
9:55 PM 31.1 °F 27.7 °F -3.8 °F 22% 30.18 in 10.0 mi NE 3.5 mph - N/A   Clear
10:15 PM 31.8 °F 26.2 °F -2.4 °F 23% 30.17 in 7.0 mi ENE 5.8 mph - N/A   Clear
10:35 PM 32.7 °F 29.6 °F -1.8 °F 23% 30.17 in 10.0 mi East 3.5 mph - N/A   Clear
10:55 PM 31.3 °F - -1.7 °F 24% 30.17 in 10.0 mi Calm Calm - N/A   Clear
11:15 PM 34.0 °F 31.0 °F 1.0 °F 25% 30.16 in 10.0 mi NNE 3.5 mph - N/A   Clear
11:35 PM 32.5 °F 29.3 °F -0.6 °F 24% 30.16 in 10.0 mi NE 3.5 mph - N/A   Clear
11:55 PM 28.8 °F 21.7 °F -2.2 °F 26% 30.16 in 10.0 mi NW 6.9 mph - N/A   Clear